Waarnemingen

Advertentie
Mijn weer
Vlieland, Nederland (6242): temperatuur & dauwpunt: 12.11.2018 17:00:00 - 18.11.2018 17:00:00 (CET)Vlieland, Nederland (6242): temperatuur 5cm: 12.11.2018 17:00:00 - 18.11.2018 17:00:00 (CET)Vlieland, Nederland (6242): windsnelheid & windstoten: 12.11.2018 17:00:00 - 18.11.2018 17:00:00 (CET)Vlieland, Nederland (6242): windrichting: 12.11.2018 17:00:00 - 18.11.2018 17:00:00 (CET)Vlieland, Nederland (6242): luchtdruk: 12.11.2018 17:00:00 - 18.11.2018 17:00:00 (CET)Vlieland, Nederland (6242): zicht: 12.11.2018 17:00:00 - 18.11.2018 17:00:00 (CET)
Datum & Tijd tt [°C] td [°C] tt 5cm [°C] ff [km/u] ff [kn] fx [km/u] fx [kn] dd ppp [hPa] vv [km]
18.11.2018 17:00:00 5,6 1,8 5,0 18 10 25 14 ONO 1030,8 10
18.11.2018 16:00:00 6,3 -0,3 5,9 22 12 32 18 ONO 1031,5 10
18.11.2018 15:00:00 6,8 -3,3 6,7 24 13 36 19 ONO 1031,6 10
18.11.2018 14:00:00 7,0 -2,7 7,2 26 14 36 19 ONO 1032,1 10
18.11.2018 13:00:00 6,8 -0,8 7,3 29 16 43 23 O 1032,7 10
18.11.2018 12:00:00 6,3 -1,7 6,4 34 18 43 23 O 1033,2 10
18.11.2018 11:00:00 5,2 -1,5 5,0 34 18 40 21 O 1033,5 10
18.11.2018 10:00:00 3,8 -1,7 3,5 31 17 40 21 O 1033,3 10
18.11.2018 09:00:00 2,6 -1,5 1,6 29 16 36 19 O 1033,6 10
18.11.2018 08:00:00 1,3 -1,2 0,7 26 14 32 18 O 1033,2 10
18.11.2018 07:00:00 1,3 -1,0 0,8 28 15 36 19 O 1033,4 10
18.11.2018 06:00:00 1,6 -0,1 1,1 29 16 36 19 O 1033,1 10
18.11.2018 05:00:00 1,9 -0,1 1,4 31 17 40 21 O 1033,6 10
18.11.2018 04:00:00 1,9 0,4 1,2 31 17 40 21 O 1033,7 9
18.11.2018 03:00:00 1,7 0,5 1,1 26 14 32 18 O 1033,5 7
18.11.2018 02:00:00 1,6 0,3 1,0 26 14 32 18 O 1033,4 8
18.11.2018 01:00:00 1,8 0,2 1,4 29 16 36 19 O 1033,7 9
18.11.2018 00:00:00 2,9 0,9 2,3 28 15 36 19 O 1033,7 10
17.11.2018 23:00:00 2,4 0,9 1,8 26 14 40 21 O 1033,6 9
17.11.2018 22:00:00 3,1 1,6 2,6 31 17 43 23 O 1033,6 10
17.11.2018 21:00:00 3,7 1,6 3,2 35 19 43 23 O 1033,3 10
17.11.2018 20:00:00 4,6 2,1 4,0 35 19 43 23 O 1033,7 10
17.11.2018 19:00:00 5,1 2,6 4,6 34 18 43 23 O 1033,5 10
17.11.2018 18:00:00 5,4 2,9 4,7 29 16 36 19 O 1033,5 10
17.11.2018 17:00:00 5,8 3,4 5,0 28 15 32 18 O 1033,4 10
17.11.2018 16:00:00 6,6 3,7 6,5 22 12 29 16 O 1033,2 10
17.11.2018 15:00:00 7,2 3,8 7,6 24 13 32 18 O 1033,1 10
17.11.2018 14:00:00 6,9 3,3 7,3 28 15 36 19 OZO 1033,0 10
17.11.2018 13:00:00 6,3 2,8 6,8 35 19 40 21 OZO 1032,9 10
17.11.2018 12:00:00 5,9 2,9 6,3 34 18 40 21 OZO 1033,1 10
17.11.2018 11:00:00 4,7 2,3 4,9 34 18 47 25 OZO 1033,0 10
17.11.2018 10:00:00 4,1 2,2 4,1 35 19 43 23 OZO 1032,5 9
17.11.2018 09:00:00 3,5 2,1 3,1 35 19 40 21 OZO 1032,3 8
17.11.2018 08:00:00 3,4 2,3 2,9 34 18 40 21 OZO 1032,3 7
17.11.2018 07:00:00 3,5 2,4 3,1 31 17 40 21 OZO 1031,5 6
17.11.2018 06:00:00 3,6 2,6 3,3 28 15 36 19 OZO 1031,5 6
17.11.2018 05:00:00 4,0 2,9 3,5 29 16 32 18 O 1031,6 6
17.11.2018 04:00:00 4,0 3,0 3,5 26 14 32 18 OZO 1031,6 7
17.11.2018 03:00:00 4,4 3,2 3,9 26 14 32 18 OZO 1031,5 9
17.11.2018 02:00:00 4,5 3,5 4,0 28 15 32 18 OZO 1031,1 9
17.11.2018 01:00:00 4,9 3,9 4,4 26 14 32 18 OZO 1030,8 8
17.11.2018 00:00:00 5,0 4,2 4,5 22 12 29 16 OZO 1030,5 7
16.11.2018 23:00:00 4,9 4,3 4,4 21 11 29 16 OZO 1030,4 6
16.11.2018 22:00:00 5,3 4,6 4,8 21 11 29 16 O 1030,0 6
16.11.2018 21:00:00 5,0 4,6 4,5 18 10 25 14 OZO 1029,9 5
16.11.2018 20:00:00 4,6 4,4 4,0 21 11 29 16 OZO 1030,0 3,7
16.11.2018 19:00:00 4,3 4,0 3,7 22 12 32 18 O 1029,7 4,3
16.11.2018 18:00:00 4,0 4,0 3,9 26 14 29 16 O 1029,5 2,3
16.11.2018 17:00:00 4,4 4,2 3,9 21 11 29 16 O 1028,8 1,8
16.11.2018 16:00:00 5,0 4,4 4,9 18 10 29 16 O 1029,0 3,7
16.11.2018 15:00:00 4,5 3,9 4,7 18 10 25 14 OZO 1029,0 3,1
16.11.2018 14:00:00 4,4 3,8 4,7 16 9 29 16 OZO 1029,0 2,6
16.11.2018 13:00:00 4,7 4,5 4,7 15 8 25 14 ZO 1029,3 2,5
16.11.2018 12:00:00 4,6 4,6 4,8 24 13 36 19 ZO 1029,4 1,7
16.11.2018 11:00:00 4,3 4,3 4,4 16 9 32 18 ZO 1029,2 1,0
16.11.2018 10:00:00 4,0 4,0 4,2 24 13 32 18 ZZO 1028,7 0,3
16.11.2018 09:00:00 3,2 3,2 3,1 21 11 29 16 ZO 1028,4 0,3
16.11.2018 08:00:00 3,9 3,9 4,1 22 12 36 19 ZO 1027,9 0,4
16.11.2018 07:00:00 5,5 5,0 5,1 24 13 29 16 ZO 1027,0 4,6
16.11.2018 06:00:00 5,7 5,0 5,1 15 8 25 14 ZZO 1026,6 6
16.11.2018 05:00:00 6,1 5,3 5,7 22 12 29 16 ZZO 1026,5 8
16.11.2018 04:00:00 6,8 5,7 6,2 21 11 29 16 ZZO 1026,1 10
16.11.2018 03:00:00 7,1 6,2 6,7 22 12 29 16 ZZO 1025,8 10
16.11.2018 02:00:00 7,5 6,3 7,0 26 14 29 16 ZZO 1025,6 10
16.11.2018 01:00:00 7,6 6,6 7,1 21 11 29 16 ZZO 1025,7 9
16.11.2018 00:00:00 7,3 6,5 6,8 24 13 29 16 ZZO 1025,6 9
15.11.2018 23:00:00 7,1 6,4 6,7 22 12 29 16 ZO 1025,1 7
15.11.2018 22:00:00 7,4 6,5 7,0 22 12 29 16 ZO 1025,0 8
15.11.2018 21:00:00 7,5 6,5 7,0 24 13 32 18 ZO 1024,7 8
15.11.2018 20:00:00 7,5 6,7 7,1 22 12 25 14 ZO 1024,4 7
15.11.2018 19:00:00 7,6 7,1 7,1 21 11 25 14 ZO 1024,3 5
15.11.2018 18:00:00 7,7 7,1 7,3 21 11 25 14 ZO 1024,2 4,6
15.11.2018 17:00:00 8,0 7,3 7,7 21 11 25 14 ZO 1024,0 4,8
15.11.2018 16:00:00 8,9 7,3 8,9 24 13 29 16 ZO 1024,1 9
15.11.2018 15:00:00 9,1 7,0 9,6 24 13 29 16 ZZO 1024,1 10
15.11.2018 14:00:00 9,3 7,2 10,0 26 14 29 16 ZZO 1024,0 10
15.11.2018 13:00:00 9,0 6,9 10,0 26 14 29 16 ZZO 1024,2 10
15.11.2018 12:00:00 9,1 7,1 9,7 24 13 32 18 ZZO 1024,5 10
15.11.2018 11:00:00 8,6 6,9 8,9 26 14 32 18 ZZO 1024,7 10
15.11.2018 10:00:00 8,1 7,0 7,9 24 13 29 16 ZZO 1024,7 10
15.11.2018 09:00:00 7,4 6,6 6,9 22 12 29 16 ZZO 1024,6 10
15.11.2018 08:00:00 7,0 6,5 6,6 22 12 29 16 ZZO 1024,4 9
15.11.2018 07:00:00 7,2 6,6 6,8 24 13 32 18 ZZO 1024,1 9
15.11.2018 06:00:00 7,5 6,8 7,1 26 14 29 16 ZZO 1023,9 10
15.11.2018 05:00:00 7,7 7,2 7,3 24 13 29 16 ZZO 1023,8 8
15.11.2018 04:00:00 7,8 7,2 7,4 21 11 25 14 ZZO 1023,8 7
15.11.2018 03:00:00 8,0 7,3 7,4 21 11 25 14 ZZO 1024,0 7
15.11.2018 02:00:00 8,3 7,3 7,6 22 12 29 16 Z 1024,1 9
15.11.2018 01:00:00 8,3 7,3 7,6 22 12 29 16 Z 1024,3 10
15.11.2018 00:00:00 8,4 7,4 7,7 18 10 29 16 Z 1024,5 10
14.11.2018 23:00:00 8,7 7,6 8,1 21 11 32 18 Z 1024,6 10
14.11.2018 22:00:00 9,0 7,8 8,5 21 11 29 16 Z 1024,4 10
14.11.2018 21:00:00 8,8 8,0 8,3 16 9 25 14 Z 1024,7 10
14.11.2018 20:00:00 9,1 8,1 8,4 18 10 29 16 Z 1024,7 10
14.11.2018 19:00:00 9,3 8,3 8,7 18 10 29 16 Z 1024,7 10
14.11.2018 18:00:00 9,5 8,8 8,9 16 9 25 14 Z 1024,6 10
14.11.2018 17:00:00 10,0 8,7 9,5 21 11 32 18 Z 1024,6 10
14.11.2018 16:00:00 11,5 8,2 11,4 28 15 36 19 Z 1024,6 10
14.11.2018 15:00:00 11,5 8,7 11,3 28 15 36 19 ZZW 1024,6 10
14.11.2018 14:00:00 11,1 9,0 11,1 22 12 32 18 Z 1024,6 10
14.11.2018 13:00:00 11,1 8,9 10,7 26 14 32 18 Z 1024,9 10
14.11.2018 12:00:00 10,6 8,6 10,9 26 14 32 18 Z 1025,5 10
14.11.2018 11:00:00 9,8 8,3 10,1 26 14 36 19 Z 1025,6 10
14.11.2018 10:00:00 9,6 8,5 9,4 24 13 32 18 Z 1025,4 10
14.11.2018 09:00:00 8,8 8,3 8,5 22 12 32 18 Z 1025,3 8
14.11.2018 08:00:00 8,7 8,3 8,3 26 14 32 18 Z 1025,0 5
14.11.2018 07:00:00 9,2 9,0 8,9 24 13 29 16 Z 1025,0 7
14.11.2018 06:00:00 9,8 9,6 9,5 22 12 32 18 Z 1025,0 5
14.11.2018 05:00:00 9,9 9,7 9,5 22 12 29 16 Z 1025,0 6
14.11.2018 04:00:00 9,6 9,4 9,2 21 11 25 14 Z 1024,8 5
14.11.2018 03:00:00 9,4 8,6 8,5 16 9 22 12 Z 1025,3 10
14.11.2018 02:00:00 10,7 8,5 9,8 16 9 25 14 WZW 1025,8 7
14.11.2018 01:00:00 11,1 8,5 10,0 22 12 29 16 WZW 1025,7 8
14.11.2018 00:00:00 11,2 8,5 10,4 26 14 32 18 WZW 1025,4 7
13.11.2018 23:00:00 11,6 8,5 10,6 26 14 40 21 W 1025,4 10
13.11.2018 22:00:00 11,4 7,7 10,7 31 17 40 21 W 1024,9 10
13.11.2018 21:00:00 11,5 7,7 10,8 31 17 43 23 W 1024,4 10
13.11.2018 20:00:00 11,5 7,5 10,7 37 20 47 25 W 1024,0 10
13.11.2018 19:00:00 11,3 7,6 10,6 39 21 47 25 W 1023,2 10
13.11.2018 18:00:00 11,5 7,4 10,7 39 21 47 25 W 1022,7 10
13.11.2018 17:00:00 11,5 7,6 10,7 39 21 50 27 W 1021,9 10
13.11.2018 16:00:00 11,6 7,9 11,3 42 23 54 29 W 1020,8 10
13.11.2018 15:00:00 11,7 7,8 11,6 41 22 54 29 W 1019,8 10
13.11.2018 14:00:00 12,0 8,3 11,5 48 26 58 31 WZW 1018,9 10
13.11.2018 13:00:00 11,7 8,1 11,5 50 27 61 33 W 1018,1 10
13.11.2018 12:00:00 11,9 7,8 11,9 50 27 61 33 WZW 1017,1 10
13.11.2018 11:00:00 12,1 8,2 11,9 48 26 58 31 WZW 1016,6 10
13.11.2018 10:00:00 10,5 9,0 10,0 44 24 65 35 ZZW 1015,9 10
13.11.2018 09:00:00 10,2 9,0 9,6 42 23 76 41 ZW 1014,7 3,3
13.11.2018 08:00:00 10,5 9,7 10,1 42 23 58 31 ZW 1014,9 6
13.11.2018 07:00:00 9,1 8,6 8,7 24 13 61 33 Z 1014,4 5
13.11.2018 06:00:00 9,8 8,9 9,4 41 22 61 33 Z 1014,3 10
13.11.2018 05:00:00 9,4 8,4 9,0 31 17 43 23 Z 1014,2 10
13.11.2018 04:00:00 8,7 7,8 8,5 28 15 50 27 ZZW 1014,8 10
13.11.2018 03:00:00 9,6 8,8 9,4 26 14 40 21 ZZW 1014,9 7
13.11.2018 02:00:00 9,5 8,7 9,1 31 17 43 23 Z 1014,9 7
13.11.2018 01:00:00 9,7 8,9 9,2 29 16 40 21 Z 1014,5 9
13.11.2018 00:00:00 9,6 8,9 9,3 28 15 40 21 Z 1014,6 8
12.11.2018 23:00:00 9,8 9,0 9,5 29 16 36 19 Z 1014,5 10
12.11.2018 22:00:00 9,7 9,0 9,3 24 13 32 18 Z 1014,6 10
12.11.2018 21:00:00 10,6 9,8 10,1 26 14 32 18 Z 1014,4 10
12.11.2018 20:00:00 10,3 9,4 9,7 24 13 36 19 ZZW 1014,2 10
12.11.2018 19:00:00 10,2 9,0 9,6 26 14 36 19 ZZW 1013,7 10
12.11.2018 18:00:00 9,9 8,9 9,3 21 11 25 14 ZZW 1013,0 10
12.11.2018 17:00:00 10,9 10,0 10,5 21 11 25 14 ZZW 1012,6 10

tt = temperatuur
td = dauwpunt
tt 5cm = temperatuur 5cm
ff = windsnelheid
fx = windstoten
dd = windrichting
ppp = luchtdruk
vv = zicht

Weerstations in de omgeving